Location: Julian California
(33.0790°N, 116.6010°W)
Time: 09:17:31
(UTC-08:00)

SPOT 5 - Pass Details

Date: 12 July 2018
Orbit: 623 x 815 km, 98.3° (Epoch: 20 November)

Event Time Altitude Azimuth Distance (km) Brightness Sun altitude
Exits shadow 22:54:37 48° 247° (WSW) 1,059 3.7 -28.3°
Maximum altitude 22:54:59 48° 260° (W) 1,048 3.7 -28.4°
Drops below altitude 10° 23:00:08 10° 335° (NNW) 2,393 6.5 -28.9°
Sets 23:02:33 0° 341° (NNW) 3,315 7.5 -29.2°
